Terminal Aerodrome Forecast
Issued by NWS Charleston, WV

Current Version | Previous Version | Graphics & Text | Print | Product List | Glossary On
Versions: 1 2 3 4 5 6 7 8 9 10 11 12 13 14 15 16 17 18 19 20 21 22 23
000
FTUS41 KRLX 010900 AAB
TAFPKB
TAF AMD
KPKB 010903Z 0109/0206 00000KT P6SM -SN OVC035
     FM011000 00000KT 2SM -SN OVC015
     FM011100 00000KT 1 1/2SM -SN OVC012
     FM011500 VRB03KT 2SM -FZRASNPL BR OVC012
     FM011700 19004KT 4SM -RA BR OVC015
     FM012300 29004KT 3SM -RA BR OVC012=

USA.gov is the U.S. government's official web portal to all federal, state and local government web resources and services.